Flag for United Kingdom

Past Weather in 51°28'50.8"N, 3°10'40.2"W, United Kingdom — Yesterday and Last 2 Weeks

Currently: 73 °F. Clear. (Weather station: Wales Airport, United Kingdom). See more current weather

Past Weather in 51°28'50.8"N, 3°10'40.2"W — Graph

°F

51°28'50.8"N, 3°10'40.2"W Temperature Yesterday

Maximum temperature yesterday: 70 °F (at 2:50 pm)
Minimum temperature yesterday: 57 °F (at 4:20 am)
Average temperature yesterday: 63 °F

High & Low Weather Summary for the Past Weeks

 TemperatureHumidityPressure
High77 °F (Jul 18, 2:50 pm)100% (Jul 5, 1:50 am)30.15 "Hg (Jul 5, 1:50 am)
Low48 °F (Jul 6, 5:50 am)52% (Jul 4, 10:50 am)29.50 "Hg (Jul 6, 1:50 am)
Average59 °F84%29.89 "Hg
* Reported Jul 3 6:20 pm — Jul 18 6:20 pm, 51°28'50.8"N, 3°10'40.2"W. Weather by CustomWeather, © 2024

Note: Actual official high and low records may vary slightly from our data, if they occured in-between our weather recording intervals... More about our weather records

51°28'50.8"N, 3°10'40.2"W Weather History for the Previous 24 Hours

Scroll right to see more
 ConditionsComfort  
Time TempWeatherWind HumidityBarometerVisibility
6:20 pm
Thu, Jul 18
75 °FClear.6 mph57%30.07 "HgN/A
5:50 pm75 °FClear.5 mph57%30.07 "HgN/A
5:20 pm75 °FClear.6 mph57%30.07 "HgN/A
4:50 pm75 °FClear.6 mph57%30.07 "HgN/A
4:20 pm77 °FClear.6 mph54%30.09 "HgN/A
3:50 pm77 °FClear.6 mph54%30.09 "HgN/A
3:20 pm75 °FClear.5 mph57%30.09 "HgN/A
2:50 pm77 °FClear.6 mph57%30.09 "HgN/A
2:20 pm75 °FClear.5 mph57%30.09 "HgN/A
1:50 pm73 °FClear.5 mph65%30.09 "HgN/A
1:20 pm73 °FClear.6 mph61%30.09 "HgN/A
12:50 pm72 °FClear.7 mph65%30.12 "HgN/A
12:20 pm72 °FClear.9 mph65%30.12 "HgN/A
11:50 am70 °FClear.8 mph69%30.12 "HgN/A
11:20 am68 °FClear.8 mph69%30.12 "HgN/A
10:50 am68 °FPassing clouds.7 mph69%30.12 "HgN/A
10:20 am66 °FScattered clouds.7 mph78%30.12 "HgN/A
9:50 am64 °FPartly sunny.6 mph78%30.12 "HgN/A
9:20 am63 °FScattered clouds.6 mph83%30.12 "HgN/A
8:50 am63 °FBroken clouds.6 mph88%30.12 "HgN/A
8:20 am61 °FPartly sunny.7 mph94%30.12 "HgN/A
7:50 am61 °FPartly sunny.7 mph94%30.12 "HgN/A
7:20 am59 °FClear.6 mph94%30.12 "HgN/A
6:50 am61 °FScattered clouds.7 mph94%30.12 "HgN/A
6:20 am59 °FClear.9 mph94%30.09 "HgN/A
5:50 am59 °FClear.6 mph88%30.12 "HgN/A
5:20 am59 °FClear.5 mph88%30.12 "HgN/A
4:50 am59 °FClear.5 mph88%30.12 "HgN/A
4:20 am59 °FClear.2 mph94%30.12 "HgN/A
3:20 am59 °FClear.6 mph94%30.12 "HgN/A
2:20 am59 °FClear.6 mph94%30.12 "HgN/A
1:50 am59 °FClear.5 mph94%30.12 "HgN/A
1:20 am59 °FClear.3 mph94%30.12 "HgN/A
12:50 am59 °FClear.2 mph88%30.12 "HgN/A
12:20 am59 °FClear.3 mph94%30.12 "HgN/A
11:50 pm
Wed, Jul 17
59 °FClear.2 mph94%30.12 "HgN/A
11:20 pm59 °FClear.2 mph94%30.12 "HgN/A
10:50 pm59 °FClear.1 mph94%30.12 "HgN/A
10:20 pm59 °FClear.2 mph88%30.12 "HgN/A
9:50 pm61 °FClear.3 mph83%30.15 "HgN/A
9:20 pm61 °FClear.5 mph88%30.12 "HgN/A
8:50 pm63 °FClear.3 mph83%30.12 "HgN/A
8:20 pm63 °FPassing clouds.2 mph83%30.12 "HgN/A
7:50 pm64 °FPassing clouds.5 mph78%30.12 "HgN/A
7:20 pm66 °FClear.8 mph73%30.12 "HgN/A
Weather by CustomWeather, © 2024

See weather overview